User: anonymous   Login
Location: Unspecified
(0.0000°N, 0.0000°E)
Time: 08:59:29
(UTC+00:00)
Language:

Asterix - Orbit

View from above orbital plane
View from above orbital plane
View from above satellite
View from above satellite

Ground track
Ground track

The orbit data is extracted from the following two-line orbital elements,

1  1778U 65096A   24114.18010568  .00002512  00000-0  67919-3 0  9995
2  1778  34.2547  69.7981 0745538  57.1180 309.9003 13.48268402858298
Epoch (UTC): 23 April 2024 04:19:21
Eccentricity: 0.0745538
inclination: 34.2547°
perigee height: 523 km
apogee height: 1634 km
right ascension of ascending node: 69.7981°
argument of perigee: 57.1180°
revolutions per day: 13.48268402
mean anomaly at epoch: 309.9003°
orbit number at epoch: 85829

The dashed part of the orbit path shows where the satellite is in the earth's shadow,  

DLR